Regional Weather Roundup
Issued by NWS Charleston, SC

Current Version | Previous Version | Graphics & Text | Print | Product List | Glossary On
Versions: 1 2 3 4 5 6 7 8 9 10 11 12 13 14 15 16 17 18 19 20 21 22 23 24 25 26 27 28 29 30 31 32 33 34 35 36 37 38 39 40 41 42 43 44 45 46 47 48 49 50
000 ASUS42 KCHS 300525 RWRCHS REGIONAL WEATHER ROUNDUP NATIONAL WEATHER SERVICE CHARLESTON SC 100 AM EDT TUE SEP 30 2014 NOTE: "FAIR" INDICATES FEW OR NO CLOUDS BELOW 12,000 FEET WITH NO SIGNIFICANT WEATHER AND/OR OBSTRUCTIONS TO VISIBILITY. NOT ALL STATIONS ARE QUALITY CONTROLLED BY THE NATIONAL WEATHER SERVICE. USE DATA WITH CAUTION...ESPECIALLY DEWPOINT OBSERVATIONS. SCZ027-030-031-034>040-042>050-300600- ...SOUTH CAROLINA... CITY SKY/WX TMP DP RH WIND PRES REMARKS N CHARLESTON CLOUDY 66 63 88 N7 29.90F WATERFRONT PRK NOT AVBL FORT JOHNSON NOT AVBL MOUNT PLEASANT DRIZZLE 66 64 94 N8 29.90F JOHNS ISLAND CLOUDY 66 66 100 N7 29.89F PINOPOLIS N/A 66 63 88 NE9 29.84F MONCKS CORNER CLOUDY 64 64 100 NE3 29.92F SUMMERVILLE CLOUDY 64 64 100 N5 29.92F BEAUFORT MCAS CLOUDY 68 65 90 NE9 29.90F BEAUFORT ARPT CLOUDY 68 66 94 NE16 29.88F HILTON HEAD IS MOCLDY 70 66 88 N8 29.90S GEORGETOWN NOT AVBL WALTERBORO CLOUDY 64 N/A N/A NE6 29.92F ORANGEBURG PTCLDY 64 61 90 NE6 29.94F BARNWELL CLOUDY 66 64 94 NE5 29.93F AIKEN CLOUDY 68 68 100 NE6 29.97F MANNING CLOUDY 64 N/A N/A NE5 29.93F KINGSTREE NOT AVBL COLUMBIA CLOUDY 67 59 75 E6 29.94F SUMTER PTCLDY 62 58 88 N1 29.93F FLORENCE CLEAR 63 61 93 NE3 29.94F MYRTLE BEACH CLOUDY 64 59 82 N8 29.91F N MYRTLE BEACH CLOUDY 64 61 90 NE5 29.91F $$ GAZ063-065-086>088-099>101-113>116-118-119-134-136>141-150-300600- ...GEORGIA... CITY SKY/WX TMP DP RH WIND PRES REMARKS SAVANNAH ARPT CLOUDY 69 65 86 N8 29.89F HUNTER AAF CLOUDY 68 67 96 NE8 29.86F FORT STEWART CLOUDY 68 66 94 N8 29.87F STATESBORO NOT AVBL SYLVANIA DRIZZLE 69 69 99 NE5 29.92S CLAXTON N/A 68 68 100 NE5 29.90F THOMSON CLOUDY 69 69 100 CALM 29.99S AUGUSTA-BUSH CLOUDY 68 64 87 E5 29.93F AUGUSTA-DANIEL CLOUDY 69 65 86 N5 29.94F SWAINSBORO CLOUDY 68 68 100 E5 29.93S VIDALIA CLOUDY 66 66 100 NE9 29.91S ALMA CLOUDY 68 67 96 VRB6 29.88F WAYCROSS CLOUDY 73 72 98 NE7 29.87S FOG JESUP CLOUDY 72 70 94 NE6 29.87F FOG BRUNSWICK CLOUDY 72 70 94 N6 29.85F SAINT SIMONS CLOUDY 73 72 96 N7 29.84F $$ SCZ027-028-034-036>038-045-046-048>050-GAZ119-141-300600- ...LAKE AND SUPPLEMENTAL COASTAL OBSERVATIONS... STATION/POSITION TIME TEMP WIND PRES WAVE SWELL AIR SEA DIR/SP/G HT/PER HT/PER/DIR (UTC) (F) (DEG/KT/KT) (MB) (FT/S) (FT/S/D) UPR LAKE MARION NOT AVBL WINYAH BAY 0500 65 10/ 4 1013.0S LAKE MURRAY 0500 67 50/ 2/ 7 1013.9S ACE BASIN NERRS 0500 66 20/ 3 1012.0F FORT PULASKI 0500 70 20/ 13/ 17 1011.9F SAPELO ISLAND NOT AVBL $$ ANZ835-935-AMZ111-154-330-350-352-354-374-450-454-472-300600- ...C-MAN AND BUOY OBSERVATIONS... STATION/POSITION TIME TEMP WIND PRES WAVE SWELL AIR SEA DIR/SP/G HT/PER HT/PER/DIR (UTC) (F) (DEG/KT/KT) (MB) (FT/S) (FT/S/D) FOLLY BEACH CMAN 0500 68 20/ 13/ 16 1012.5F BUOY 41004 0500 74 81 60/ 8/ 10 1010.9F 5/ 6 5/ 6 BUOY 41008 0500 76 79 70/ 12/ 14 1010.1F 4/ 6 3/ 50/ 6 5E ST. MARYS GA 0500 79 N/A 3/ 9 FRYING PAN BUOY NOT AVBL BUOY 41025 0500 72 340/ 12/ 14 1012.4F 3/ 8 2/ 70/ 8 CAPE LOOKOUT NC 0500 69 10/ 8/ 10 1012.7F BUOY 41002 0357 80 81 180/ 8/ 10 1012.2F 3/ 8 3/ 90/ 8 BUOY 41010 0500 78 85 140/ 8/ 10 1010.8F 3/ 8 3/ 70/ 8 BUOY 41012 NOT AVBL ST AUGUSTINE FL 0500 74 230/ 4/ 6 1010.9R CAPERS NEARSHORE 0400 69 50/ 16/ 19 N/A FRIPP NEARSHORE NOT AVBL $$

USA.gov is the U.S. government's official web portal to all federal, state and local government web resources and services.